Volver al catálogo

STARLINK-3226

ActivoComunicacionesVLEO
NORAD 49740·PAYLOAD·🇺🇸 United States

Lanzado Dec 2, 2021 desde Cape Canaveral Space Force Station

Loading…

Próximos Pases (próximas 24 horas)

TLE

ActualizadoSource: CelesTrak SupGP

Época: Sep 14, 2026, 12:44 UTC

1 49740C 21115S   26257.53104167 -.00022046  00000+0 -70972-3 0  2573
2 49740  53.1598   7.5512 0001260  88.0531 162.9718 15.31677150    12

Sigue STARLINK-3226 en tiempo real con AllMySat

Download on the App Store